Dover AFB, DE

11:43 AM EDT on September 22, 2017 (GMT -0400)
Dover Air Force Base

Weather History for KDOV - March, 2014

Change the Weather History Date:

Saturday, March 1, 2014

  Actual Average Record
Temperature  
Mean Temperature 28 °F -  
Max Temperature 40 °F 50 °F 77 °F (1972)
Min Temperature 16 °F 29 °F 9 °F (1980)
Degree Days  
Heating Degree Days 37    
Moisture  
Dew Point 21 °F    
Average Humidity 75    
Maximum Humidity 100    
Minimum Humidity 39    
Precipitation  
Precipitation 0.00 in - - ()
Sea Level Pressure  
Sea Level Pressure 30.31 in    
Wind  
Wind Speed 4 mph (East)    
Max Wind Speed 12 mph    
Max Gust Speed -    
Visibility 10 miles    
Events      
Averages and records for this station are not official NWS values.
T = Trace of Precipitation, MM = Missing Value Source: NWS Daily Summary

Daily Weather History Graph

Daily Weather History Graph

Search for Another Location

Airport or City:

Trip Planner

Search our weather history database for the weather conditions in past years. The results will help you decide how hot, cold, wet, or windy it might be!

Date:

Astronomy

Mar. 01, 2014 Rise Set
Actual Time 6:34 AM EST 5:54 PM EST
Civil Twilight 6:07 AM EST 6:21 PM EST
Nautical Twilight 5:36 AM EST 6:52 PM EST
Astronomical Twilight 5:05 AM EST 7:23 PM EST
Moon 6:27 AM EST (3/1) 6:38 PM EST (3/1)
Length of Visible Light 12h 13m
Length of Day
11h 19m
New Moon, 0% of the Moon is Illuminated
Mar 1
New Moon
Mar 8
First Quarter
Mar 16
Full
Mar 23
Last Quarter
Mar 30
New

Hourly Weather History & Observations

Time (EST) Temp. Windchill Dew Point Humidity Pressure Visibility Wind Dir Wind Speed Gust Speed Precip Events Conditions
12:58 AM 17.4 °F - 10.6 °F 75% 30.43 in 10.0 mi WNW 2.3 mph - N/A   Clear
1:58 AM 16.0 °F 10.4 °F 10.6 °F 79% 30.40 in 10.0 mi NNW 3.5 mph - N/A   Clear
2:58 AM 17.2 °F - 10.9 °F 76% 30.38 in 10.0 mi NNW 2.3 mph - N/A   Clear
3:58 AM 16.7 °F - 12.6 °F 84% 30.38 in 10.0 mi North 2.3 mph - N/A   Clear
4:58 AM 18.0 °F 11.1 °F 11.5 °F 76% 30.38 in 10.0 mi WNW 4.6 mph - N/A   Clear
5:58 AM 16.5 °F 11.0 °F 11.7 °F 81% 30.38 in 10.0 mi North 3.5 mph - N/A   Clear
6:58 AM 17.2 °F - 12.4 °F 81% 30.38 in 10.0 mi North 1.2 mph - N/A   Clear
7:58 AM 24.3 °F 18.4 °F 20.7 °F 86% 30.39 in 10.0 mi ESE 4.6 mph - N/A   Clear
8:58 AM 30.6 °F 23.8 °F 22.8 °F 73% 30.40 in 10.0 mi ESE 6.9 mph - N/A   Mostly Cloudy
9:58 AM 32.4 °F 25.3 °F 21.2 °F 63% 30.38 in 10.0 mi East 8.1 mph - N/A   Clear
10:58 AM 34.2 °F 30.0 °F 20.7 °F 58% 30.36 in 10.0 mi Variable 4.6 mph - N/A   Clear
11:58 AM 37.0 °F 33.3 °F 17.8 °F 46% 30.34 in 10.0 mi Variable 4.6 mph - N/A   Clear
12:58 PM 40.5 °F 38.4 °F 17.2 °F 39% 30.30 in 10.0 mi South 3.5 mph - N/A   Partly Cloudy
1:58 PM 40.8 °F 34.1 °F 24.6 °F 53% 30.26 in 10.0 mi ENE 11.5 mph - N/A   Clear
2:58 PM 38.5 °F 32.7 °F 25.0 °F 58% 30.23 in 10.0 mi East 8.1 mph - N/A   Mostly Cloudy
3:58 PM 37.8 °F 34.2 °F 23.0 °F 55% 30.24 in 10.0 mi East 4.6 mph - N/A   Overcast
4:58 PM 35.6 °F 30.7 °F 26.4 °F 69% 30.25 in 10.0 mi ENE 5.8 mph - N/A   Overcast
5:58 PM 34.5 °F 30.4 °F 27.0 °F 74% 30.23 in 10.0 mi East 4.6 mph - N/A   Overcast
6:58 PM 32.9 °F - 28.6 °F 84% 30.23 in 10.0 mi SE 2.3 mph - N/A   Overcast
7:58 PM 32.9 °F - 32.7 °F 99% 30.23 in 10.0 mi SSE 2.3 mph - N/A   Mostly Cloudy
8:58 PM 33.8 °F - 33.6 °F 99% 30.23 in 10.0 mi South 1.2 mph - N/A   Overcast
9:58 PM 30.6 °F 25.8 °F 30.2 °F 99% 30.21 in 10.0 mi SSE 4.6 mph - N/A   Scattered Clouds
10:58 PM 31.6 °F 28.3 °F 31.6 °F 100% 30.19 in 10.0 mi SSE 3.5 mph - N/A   Overcast
11:58 PM 30.7 °F 27.3 °F 30.7 °F 100% 30.19 in 10.0 mi South 3.5 mph - N/A   Clear